Theta_e
312 312 313 313 314 314 315 315 315 314 314 316 318 315 313 313 314 315 315 315 316 318 318 317 316 316 317 317 317 316 320 321 321 318 319 314 316 311 311 312 311 311 312 312 311
310 310 310 311 311 311 312 312 313 314 314 314 315 318 316 315 314 315 315 314 315 318 319 317 317 317 318 317 317 319 320 319 318 317 318 315 315 315 313 313 312 311 312 312 311
312 312 311 311 310 310 310 310 311 311 312 313 313 315 318 316 316 316 316 313 315 317 318 316 317 317 318 317 317 317 320 317 317 315 314 315 314 313 314 316 315 315 313 312 310
313 313 313 313 313 312 311 310 310 310 311 311 312 313 315 316 318 317 315 313 313 316 319 318 317 317 319 319 315 319 315 315 316 314 313 315 313 313 313 317 316 314 313 312 311
314 314 314 314 313 312 312 311 311 310 310 310 311 312 314 315 316 317 315 313 312 313 318 319 318 317 320 317 315 317 316 314 314 313 313 312 314 314 313 314 313 313 312 312 311
314 314 314 314 314 314 313 312 311 311 310 310 310 311 313 315 314 315 317 314 313 312 314 319 319 317 316 317 316 315 314 315 314 314 313 313 315 311 316 314 313 312 312 311 311
314 314 314 314 314 314 314 313 312 311 310 309 310 311 313 314 313 314 316 315 312 311 312 317 318 316 314 315 312 312 316 316 314 313 314 311 315 314 316 313 312 311 311 310 311
314 314 314 314 314 314 313 313 312 311 310 310 310 312 313 313 314 315 315 316 313 311 312 315 317 315 313 312 313 316 315 319 316 312 312 312 319 319 315 310 312 312 309 310 311
311 312 313 313 313 313 313 313 312 311 310 310 311 312 315 313 315 315 316 315 313 311 311 314 316 314 313 318 319 317 319 318 317 313 312 313 319 317 313 310 312 313 311 308 309
306 307 309 311 312 313 312 312 311 310 310 312 313 315 314 314 315 316 316 314 311 311 312 314 315 318 316 318 317 317 317 317 317 315 312 314 315 316 315 310 312 313 313 311 307
306 306 306 308 310 310 311 310 309 309 310 312 314 315 314 314 315 315 315 313 310 311 314 314 317 318 318 318 317 316 316 318 319 311 313 316 315 315 315 313 312 312 312 312 309
309 307 306 305 307 308 308 307 307 309 309 310 310 312 313 315 315 315 314 312 312 314 313 315 316 317 315 315 315 316 317 319 318 310 310 314 313 313 313 313 313 313 313 312 310
309 309 307 305 305 306 306 306 308 310 312 311 310 310 311 310 313 313 313 312 313 313 314 315 316 311 313 314 315 316 317 318 317 312 308 308 313 312 312 309 310 311 311 311 309
312 309 309 305 305 305 307 309 310 311 309 309 308 310 311 312 311 311 312 312 312 314 313 315 313 313 314 316 315 317 315 314 314 314 318 309 318 316 314 313 311 312 314 309 309
316 313 308 307 305 307 308 309 309 306 310 308 308 309 313 312 309 309 310 310 313 312 313 315 312 312 314 315 313 317 307 310 309 312 310 315 313 315 308 310 312 313 313 311 309
317 315 313 309 304 305 307 309 310 307 306 308 311 311 313 310 309 308 308 309 309 312 311 314 308 310 314 306 307 306 309 308 306 310 315 316 315 314 313 312 312 313 313 310 310
319 316 315 313 307 305 306 308 308 306 305 308 312 311 312 312 311 309 310 310 313 314 315 313 312 308 307 311 307 308 314 317 320 319 318 310 310 312 312 312 312 314 314 309 309
320 319 318 315 311 307 308 309 306 309 308 309 311 310 313 312 312 311 310 312 310 310 312 316 316 310 309 314 316 311 315 318 320 317 316 307 311 313 311 311 311 309 308 307 307
321 319 317 318 315 308 307 309 307 308 308 307 311 313 313 311 311 311 312 313 313 311 315 314 315 305 304 305 307 309 313 311 317 310 314 316 316 313 309 309 307 306 306 307 307
322 318 316 319 316 309 307 307 307 307 305 309 309 311 311 312 311 312 312 312 313 309 312 313 315 308 300 302 301 307 306 312 313 320 319 316 315 315 314 311 310 308 307 310 309
319 313 316 317 313 311 309 308 307 305 306 308 309 309 309 310 312 311 312 311 311 310 309 312 315 310 304 306 310 305 308 306 307 311 316 316 314 312 311 310 310 310 309 310 309
316 314 314 314 310 310 309 311 308 306 305 307 307 308 308 308 309 311 311 311 310 308 310 311 313 316 314 302 302 305 309 310 313 314 311 313 315 306 311 310 309 309 309 309 310
316 314 312 312 314 311 310 310 309 309 307 306 307 307 308 307 307 309 309 309 308 310 311 309 313 317 315 304 300 306 305 307 311 311 313 315 314 311 311 311 307 308 309 308 309
316 312 307 308 311 312 313 313 311 309 310 307 305 306 306 306 307 308 309 308 308 309 310 310 313 314 313 313 309 309 307 306 308 312 313 313 313 312 312 311 311 311 310 308 308
314 313 309 306 308 310 312 313 314 311 307 307 306 307 308 308 308 308 308 308 305 306 308 310 312 312 312 312 311 310 310 309 307 309 311 312 311 312 311 311 311 310 310 309 309
310 313 306 309 309 308 309 312 314 315 312 309 309 310 307 308 309 315 309 308 308 302 306 306 311 311 311 311 311 311 311 311 311 311 311 310 309 309 309 308 309 309 309 308 308
305 308 308 310 309 309 309 309 311 312 313 312 311 310 311 309 309 309 309 308 308 309 308 307 308 310 312 311 310 310 310 310 310 310 310 310 311 311 311 310 310 310 309 309 308
Wind_Speed
6 7 8 9 10 11 11 12 12 12 11 9 6 1 1 2 4 4 3 4 3 1 1 2 1 6 6 2 2 2 3 4 3 5 2 7 8 5 6 5 9 10 10 9 9
6 7 8 9 11 11 11 12 12 11 11 9 7 4 6 7 7 9 7 6 4 2 0 2 3 10 4 3 1 3 3 4 2 3 2 5 10 7 6 9 10 14 20 17 14
8 9 9 9 10 12 12 12 12 12 12 10 8 7 6 8 10 9 14 9 6 3 1 2 4 8 4 4 3 2 3 2 4 7 4 4 6 7 8 11 17 18 17 23 21
10 10 11 12 12 13 14 14 14 14 13 13 11 8 7 7 5 4 13 12 8 5 2 2 3 4 4 5 4 4 5 4 2 5 4 5 4 6 18 24 14 14 17 19 26
13 13 13 14 14 14 14 15 16 15 15 14 12 10 8 8 14 12 12 14 11 8 6 4 3 4 4 4 5 5 5 6 6 6 8 8 13 10 18 22 22 23 21 22 25
16 16 16 16 16 16 15 16 17 16 16 16 14 10 9 9 11 11 13 15 14 11 9 6 4 4 2 3 5 4 4 7 7 9 8 7 6 3 11 11 20 26 28 27 28
19 18 18 18 19 19 18 18 19 19 18 17 15 12 13 17 14 12 13 14 14 12 10 8 4 3 2 2 2 1 6 5 12 7 5 6 10 12 22 16 17 21 23 26 29
21 21 21 21 21 21 20 20 20 19 19 18 14 11 10 14 14 14 15 14 13 11 9 7 5 3 1 2 0 3 3 5 6 9 4 7 11 13 10 13 19 21 21 26 29
23 22 22 21 22 23 22 21 21 20 18 16 11 8 8 10 12 14 13 12 11 9 8 6 4 3 3 3 6 4 11 9 4 12 5 11 16 6 8 12 20 23 23 25 28
23 23 22 21 21 23 23 22 21 19 15 10 11 5 13 9 9 10 13 13 9 8 5 5 3 4 3 7 13 15 9 9 11 5 9 11 22 23 24 17 30 35 31 29 29
21 22 22 20 20 20 21 17 9 6 6 8 4 7 7 10 8 9 13 13 11 7 7 2 7 17 17 17 17 11 11 19 18 4 5 15 21 23 28 26 33 37 34 32 31
22 22 21 18 18 17 16 9 9 8 11 15 21 25 26 18 8 14 15 11 9 11 7 4 16 20 6 8 10 11 14 22 15 3 8 15 21 22 24 31 34 34 36 28 24
19 21 21 17 16 15 12 10 7 7 6 9 19 17 19 19 12 15 18 10 6 9 13 16 11 3 8 9 10 13 19 18 12 4 8 10 15 10 9 15 22 32 32 25 24
20 19 18 13 12 11 7 4 2 4 5 5 5 5 7 7 5 10 20 8 5 9 8 10 5 9 10 11 13 14 8 13 11 6 12 2 17 13 15 15 11 31 30 19 24
20 18 14 10 6 6 5 2 1 2 8 1 3 4 7 6 4 3 15 9 7 7 6 5 4 7 10 8 12 5 1 2 2 8 7 13 10 9 2 7 16 17 30 21 19
18 17 16 8 12 12 8 3 2 4 10 3 4 4 4 4 2 4 4 3 2 4 5 8 1 4 3 3 1 6 1 3 2 4 10 20 18 3 5 7 8 19 24 18 15
20 17 19 11 9 13 11 8 4 9 4 6 5 5 3 6 6 8 7 8 7 5 10 4 8 3 4 4 3 5 2 6 7 6 15 2 7 14 15 13 16 19 23 10 12
23 24 23 19 9 13 16 4 14 6 12 3 3 4 8 11 7 9 7 8 11 4 1 5 12 12 9 10 4 10 6 6 14 15 26 6 10 10 8 19 32 18 22 19 14
26 31 33 27 14 18 14 10 11 10 8 8 3 4 7 4 4 7 12 8 10 19 13 8 10 2 1 2 1 7 7 3 7 1 10 13 19 7 9 13 8 19 20 25 25
33 37 42 33 22 24 7 24 10 9 6 5 18 14 14 13 10 11 12 6 6 16 14 4 14 4 4 3 2 4 4 4 3 8 19 23 28 18 14 15 13 12 17 23 22
33 14 26 33 29 21 12 13 12 20 13 10 15 13 13 12 13 9 12 3 8 6 14 4 9 5 5 11 14 5 5 4 2 4 10 21 11 5 4 4 9 13 18 19 18
23 4 14 28 14 8 12 9 10 8 17 13 5 14 20 16 14 12 15 13 17 12 12 8 3 10 18 2 1 1 10 14 9 10 11 11 32 8 8 6 6 4 10 14 17
13 13 17 43 8 9 11 12 12 11 12 13 15 12 14 18 10 15 19 10 15 12 11 9 2 7 16 5 0 8 8 12 16 16 32 11 31 13 12 12 12 15 22 24 35
13 3 8 27 21 17 21 18 15 19 22 14 6 12 4 10 14 12 22 9 19 18 15 16 8 14 21 16 1 7 12 17 22 17 19 26 38 42 29 30 31 36 33 33 35
12 9 15 5 16 17 15 9 21 14 15 17 7 20 21 15 17 23 24 18 9 8 6 13 14 19 28 35 23 25 24 27 28 29 24 36 26 36 35 30 30 39 35 48 44
10 5 9 10 30 25 23 18 27 28 16 14 20 21 24 25 24 24 26 23 19 2 6 4 18 24 32 32 27 26 27 32 33 36 28 28 32 35 40 53 41 54 44 43 43
16 21 16 8 11 16 23 30 30 28 28 35 26 22 20 29 46 48 36 15 7 12 15 13 9 11 23 26 20 12 35 30 39 34 32 30 36 33 36 34 32 44 37 38 43
Wind_Direction
354 356 357 357 359 2 3 5 8 11 16 11 11 301 255 250 223 220 211 199 183 148 32 179 212 169 166 173 178 163 229 238 230 193 155 167 200 193 210 202 207 214 229 232 213
341 343 347 347 347 348 349 349 350 353 356 359 347 315 260 269 269 254 239 218 211 184 96 194 177 162 164 152 171 229 250 233 199 213 232 198 217 201 200 206 230 236 237 235 225
326 332 337 341 340 341 340 341 340 339 338 339 336 317 284 266 286 246 221 220 225 238 311 215 187 171 163 167 175 181 257 200 237 232 232 231 222 205 229 232 233 228 230 234 226
311 318 323 327 331 333 334 334 333 331 330 328 325 314 290 260 251 240 209 219 230 245 285 293 199 189 170 189 185 211 227 220 246 216 202 229 193 224 226 245 251 239 243 239 226
304 310 314 318 322 322 324 324 324 324 323 319 315 305 286 253 252 256 228 224 230 239 248 256 237 190 226 182 180 221 193 218 246 232 230 248 243 253 249 252 254 257 251 240 233
296 301 306 309 313 315 317 317 315 315 314 313 307 294 268 246 263 250 239 234 235 236 245 254 250 244 185 210 225 187 240 250 249 242 237 234 251 227 256 238 238 248 249 242 238
290 294 297 301 305 307 311 314 312 313 309 306 300 286 266 264 266 249 242 238 238 239 238 241 243 218 185 224 232 277 289 260 225 216 238 210 268 233 257 248 246 246 244 240 239
282 286 290 296 299 301 306 310 308 309 306 301 293 276 256 261 254 246 241 235 235 236 236 235 238 229 181 160 311 254 248 250 151 172 193 185 277 241 240 237 250 248 240 239 239
275 278 282 288 293 298 303 306 307 305 298 290 277 249 259 257 244 238 229 223 226 226 222 219 221 195 161 232 264 225 273 240 270 207 153 208 283 237 238 248 264 257 248 243 244
278 276 278 283 289 293 300 305 307 300 281 269 244 244 241 239 234 228 217 212 208 207 202 206 191 228 198 207 264 282 259 252 259 185 217 222 257 272 270 258 263 269 261 251 243
282 281 279 281 285 292 298 315 312 298 256 231 221 236 258 240 232 221 209 197 193 185 205 152 227 238 247 234 266 277 264 268 267 201 240 255 261 275 283 275 264 271 264 255 247
292 287 282 281 281 288 297 303 287 276 299 261 255 252 254 250 242 223 203 185 183 213 151 183 240 254 270 250 231 242 258 264 279 219 214 273 271 277 271 269 268 268 267 260 253
297 292 290 284 280 286 284 288 282 291 250 269 244 242 251 239 235 233 196 204 199 201 205 232 248 88 190 214 208 233 239 259 257 305 228 286 271 244 261 259 274 268 264 257 243
308 299 294 286 279 269 267 242 257 321 260 242 220 225 213 184 241 209 193 194 199 240 196 244 274 234 223 240 201 246 240 250 266 284 275 8 290 277 273 255 258 272 272 248 251
303 307 296 288 227 220 223 214 316 339 277 58 181 195 170 182 129 192 192 203 210 181 180 221 188 199 219 240 180 248 99 195 220 253 302 255 267 271 173 255 260 260 270 253 242
287 296 302 296 237 225 211 206 133 236 243 231 164 176 155 196 176 129 167 174 130 181 235 255 199 226 217 96 184 134 164 197 181 252 256 260 235 243 197 212 244 256 262 248 225
275 276 285 286 249 215 196 150 230 232 19 193 198 180 209 186 196 184 169 180 192 183 220 197 224 171 179 167 141 188 208 290 263 242 267 123 261 265 281 244 239 252 263 249 233
265 263 269 273 254 202 172 161 234 190 210 76 128 140 200 166 216 183 169 211 230 215 181 229 259 184 182 224 221 185 211 222 276 287 289 98 251 273 240 253 252 267 259 263 247
252 246 246 251 244 197 173 217 229 204 186 181 110 207 217 232 224 179 210 216 208 189 204 195 252 126 147 93 252 153 200 343 290 144 285 254 257 234 197 240 243 253 257 258 254
252 235 238 240 222 194 196 236 224 200 156 176 224 199 228 219 196 195 192 188 229 202 210 211 277 150 112 143 86 211 124 134 214 277 274 278 294 283 242 237 237 248 246 255 255
261 221 243 238 199 182 215 229 240 229 195 192 231 246 239 236 215 217 238 212 205 192 200 173 213 218 147 201 188 164 196 204 293 241 271 287 276 157 173 165 213 232 237 254 272
239 232 200 186 186 193 224 197 238 237 225 249 250 251 246 232 238 248 246 227 190 152 168 207 182 250 241 144 198 249 228 207 226 232 234 266 271 171 167 194 245 232 264 278 283
237 240 208 189 207 213 230 241 238 235 220 211 229 224 230 245 250 249 257 229 192 171 183 169 187 254 264 213 235 218 204 232 240 255 250 226 264 230 271 260 258 260 275 279 283
237 215 176 209 230 211 219 232 232 230 240 235 225 215 215 241 218 243 242 230 202 207 200 169 188 225 244 252 355 203 226 231 223 235 251 238 256 275 273 277 282 279 280 273 263
242 208 196 192 222 234 232 216 231 235 209 217 238 229 225 241 252 250 259 248 214 216 179 165 235 243 252 256 256 266 262 252 237 235 242 256 259 267 276 276 277 283 286 279 277
263 241 205 203 213 216 228 221 229 238 213 214 221 220 221 229 216 244 235 239 228 177 216 202 237 224 240 248 255 255 254 251 257 257 254 255 264 264 269 275 279 274 273 274 277
265 273 276 202 216 218 215 222 230 237 238 233 222 227 223 227 230 234 254 271 211 229 229 229 229 238 246 246 251 238 238 246 256 261 257 261 254 264 267 263 264 271 280 276 269